www.pogodaiklimat.ru

Погода и климат >> Архив погоды >> Россия >> Красноярский край >> Агинское


ПОГОДА в Агинском

  • Прогноз погоды в Агинском
  • Монитор погоды в Агинском

АРХИВ ПОГОДЫ в Агинском

Время (UTC), дата Ветер
(напр.,м/с)
 
Видим.   Явления Облачность Т
(С)
Тd
(С)
f
(%)
Тe
(С)
Тes
(С)
Комфортность P
(гПа)
Po
(гПа)
Тmin
(С)
Tmax
(С)
R
(мм)
R24
(мм)
S
(см)
18 15.04 штиль 0 20 км ясно -5.7 -7.5 87 -7 -7 1008.7 965.7
21 15.04 СЗ 1 20 км ясно -7.5 -9.0 89 -10 -10 1007.1 963.9
00 16.04 штиль 0 20 км 10/0 2000 м
[Ac lent Cs]
-6.5 -8.5 86 -7 -7 1006.2 963.2 -8.3 6
03 16.04 СВ 2 20 км 10/0
[Ac und Cs]
-0.1 -8.4 54 -3 +1 1004.7 962.7
06 16.04 С 1 50 км 6/6 1000 м
[Cu Sc]
+3.3 -10.9 34 +3 +8 1005.4 963.9
09 16.04 СЗ 2 50 км 8/8 1000 м
[Cu hum]
+4.7 -11.6 30 +3 +4 1006.7 965.3
12 16.04 С 1 50 км 5/5 1000 м
[Cu Sc]
+3.6 -12.1 31 +3 +3 1009.1 967.4 +5.0
15 16.04 штиль 0 20 км ясно -4.2 -8.5 72 -5 -5 1012.6 969.7
18 16.04 С 1 20 км ясно -7.2 -9.0 87 -10 -10 1014.4 970.9
21 16.04 С 1 20 км ясно -9.1 -10.1 92 -11 -11 1015.9 972.0
00 17.04 С 1 50 км ясно -6.8 -8.7 86 -9 -8 1017.0 973.5 -9.6 3
03 17.04 ЮВ 1 50 км 8/0
[Ci fib]
+5.6 -8.3 36 +5 +13 1014.1 972.6
06 17.04 З 2 50 км 8/8 1000 м
[Cu med, cong]
+6.9 -9.4 30 +6 +8 1013.0 971.7
09 17.04 З 3 50 км 9/9 900 м
[Cb cap]
+8.1 -8.7 29 +6 +7 1011.1 970.0
12 17.04 З 3 50 км 6/6 600 м
[Cb cap]
+7.5 -10.7 26 +6 +6 1009.3 968.3 +8.6
15 17.04 З 1 20 км ясно +1.9 -8.2 47 +1 +1 1008.9 967.0
18 17.04 штиль 0 20 км ясно -3.9 -6.8 80 -5 -5 1008.4 965.7
21 17.04 штиль 0 20 км 3/0
[Ci fib]
-5.7 -7.2 89 -7 -7 1006.7 963.8
00 18.04 штиль 0 50 км ясно -2.7 -5.5 81 -4 -2 1002.8 960.5 -6.9
03 18.04 ЮЗ 4 50 км 10/3 1000 м
[Sc As op]
+11.2 -8.9 23 +10 +10 995.3 955.3
06 18.04 ЮЗ 6-13
{14}
50 км 9/9 600 м
[Cb cap]
+15.5 -7.0 21 +14 +15 988.4 949.3
09 18.04 З 7-14
{19}
4000 м слаб. ливневой дождь со снегом 10/10 600 м
[Cb cap]
+2.6 -1.3 75 -4 -4 998.4 957.1
12 18.04 З 3
{18}
4000 м слаб. ливневой снег 10/10 870 м
[Cb cap]
-0.8 -1.5 95 -6 -6 1005.5 963.4 +15.7 2
15 18.04 З 6-12
{18}
20 км {ливн. осадки} 9/9 600 м
[Cb cap]
-1.8 -8.1 62 -8 -8 1008.5 966.1
18 18.04 СЗ 6-13
{18}
20 км позёмок {ливн. осадки} 10/0 2000 м
[As op]
-5.8 -16.3 43 -13 -13 1014.2 970.9
21 18.04 З 6-11
{17}
20 км позёмок 10/10 1200 м
[Sc]
-8.4 -12.0 75 -17 -17 1018.4 974.6
00 19.04 З 7-15
{15}
50 км {метель} 10/10 870 м
[Cb cap]
-6.5 -14.9 51 -15 -15 1020.3 976.6 -8.4 0.4 2
03 19.04 З 7-16
{19}
50 км позёмок 10/4 600 м
[Cb cap Ac As]
-4.8 -13.3 51 -13 -12 1023.1 979.6
06 19.04 З 7-15
{16}
50 км позёмок 8/8 600 м
[Cb cap]
-2.0 -11.3 49 -9 -8 1024.3 981.2
09 19.04 З 7-14
{15}
50 км {метель} 6/6 600 м
[Cb cap]
+0.3 -11.3 41 -6 -5 1024.6 981.9
12 19.04 З 4
{14}
50 км {метель} 6/6 600 м
[Cb cap]
+0.4 -12.5 37 -4 -4 1023.8 981.0 +0.7
15 19.04 ЮЗ 1 20 км ясно -2.7 -10.9 53 -4 -4 1024.1 980.9
18 19.04 штиль 0 20 км ясно -7.1 -9.9 80 -8 -8 1023.2 979.3
21 19.04 штиль 0 20 км ясно -10.3 -11.6 90 -11 -11 1022.0 977.7
00 20.04 штиль 0 20 км 5/0
[Cs]
-6.5 -8.9 83 -7 -6 1019.8 976.2 -11.3 0
03 20.04 Ю 2 50 км 4/0
[Cs]
+0.9 -10.6 42 -2 +6 1016.8 974.4
06 20.04 СЗ 2 50 км 8/0
[Cs]
+4.8 -12.3 28 +3 +13 опасность
простуды
1013.3 971.6
09 20.04 З 2 50 км 8/0
[Ac lent Cs]
+7.5 -11.3 25 +6 +11 1010.2 969.1
12 20.04 В 1 50 км 9/0
[Cs]
+6.1 -12.5 25 +6 +6 1009.3 968.0 +8.2
15 20.04 штиль 0 20 км 6/3 1000 м
[Sc Cs]
-1.5 -9.0 57 -2 -2 1009.6 967.2
18 20.04 штиль 0 20 км 3/3 1000 м
[Sc]
-4.0 -7.4 77 -5 -5 1008.9 966.1
21 20.04 С 1 20 км 6/3 1000 м
[Sc Ac trans]
-6.0 -7.8 87 -8 -8 1008.4 965.3
00 21.04 штиль 0 20 км 10/10 1200 м
[Sc]
-2.6 -5.8 79 -4 -4 1008.1 965.6 -6.0
03 21.04 СЗ 3 50 км 10/10 1200 м
[Sc]
+4.9 -10.2 33 +2 +2 1007.4 966.0
06 21.04 С 3 50 км 10/10 1170 м
[Sc]
+5.7 -8.9 34 +3 +3 1008.0 966.7
09 21.04 СЗ 4
{11}
50 км 8/5 600 м
[Cb cap Cs]
+6.3 -9.7 31 +3 +5 1009.2 968.0
12 21.04 СЗ 4
{10}
50 км 8/3 600 м
[Cb cap Ac lent Cc]
+5.2 -10.3 32 +2 +2 1010.4 969.0 +6.3
15 21.04 З 3
{11}
4000 м слаб. ливневой снег 10/10 870 м
[Cb cap]
+0.5 -1.9 84 -4 -4 1013.9 971.6
18 21.04 СЗ 2 4000 м слаб. ливневой снег 10/10 840 м
[Cb cap]
-2.5 -3.2 95 -7 -7 1017.5 974.7
21 21.04 СЗ 2 20 км {ливн. осадки} 6/6 600 м
[Cb cap]
-5.0 -6.8 87 -9 -9 1020.3 976.9
00 22.04 З 2 20 км {ливн. осадки} 6/6 600 м
[Cb cap]
-3.3 -6.4 79 -7 -7 1022.3 979.1 -7.5 3 5
03 22.04 С 3 4000 м слаб. ливневой снег 10/10 870 м
[Cb cap]
-1.9 -8.1 63 -6 -6 1023.8 980.8
06 22.04 С 4 50 км {ливн. осадки} 8/8 1000 м
[Cu med, cong]
+2.1 -8.1 47 -2 -0 1023.4 980.9
09 22.04 СЗ 3 50 км 6/6 1000 м
[Cu hum]
+4.1 -10.6 33 +1 +4 1023.1 981.0
12 22.04 С 2 50 км ясно +3.4 -11.8 32 +2 +2 1023.6 981.3 +4.5 0.0
15 22.04 штиль 0 20 км ясно -3.7 -7.5 75 -5 -5 1026.3 982.9

 

Местоположение метеостанции Агинское (Красноярский край, Россия): широта 55.25 долгота 94.88 высота над уровнем моря 337 м.

В архиве по умолчанию представлена погода в Агинском за последнюю неделю. Архивные данные за месяц целиком и за предыдущие месяцы, начиная с января 2011 года, Вы можете получить, выбрав интересующий диапазон дат из раскрывающегося списка и нажав кнопку "Ввод!".


*Определитесь, кто Вы:
робот инопланетянин человек

Внимание! Время в таблицах - всемирное. Для получения местного времени необходимо прибавить поправку, которая равна 7 ч.

Смотрите также архив погоды в соседних городах и на ближайших метеорологических станциях:

Погода в Ирбейском (Красноярский край, Россия) (56 км)
Погода в Уяре (Красноярский край, Россия) (70 км)
Погода в Шалинском (Красноярский край, Россия) (88 км)
Погода в Анастасино (Красноярский край, Россия) (96 км)
Погода в Солянке (Красноярский край, Россия) (105 км)
Погода в Канске (Красноярский край, Россия) (116 км)
Погода в Щетинкино (Красноярский край, Россия) (123 км)
Погода в Артемовске (Красноярский край, Россия) (126 км)
Погода в Железногорске (Красноярский край, Россия) (140 км)
Погода в Роевом Ручье (Красноярский край, Россия) (157 км)

Пояснения к столбцам:

Ветер - указаны скорость ветра в м/с - средняя за 10 мин, порывы в срок и между сроками (в фигурных скобках) и направление, откуда дует ветер: С - северный, СВ - северо-восточный, В - восточный, ЮВ - юго-восточный, Ю - южный, ЮЗ - юго-западный, З - западный, СЗ - северо-западный.
Видимость - горизонтальная дальность видимости в метрах или километрах. При видимости от 1 до 10 км при отсутствии осадков обычно наблюдается дымка, при ухудшении видимости до 1 км и менее - туман. В сухую погоду видимость может ухудшаться дымом, пылью или мглою.
Явления - указаны атмосферные явления, наблюдавшиеся в срок или в последний час перед сроком; фигурными скобками обозначены явления, наблюдавшиеся между сроками (за 1-3 часа до срока); квадратными скобками обозначены град или гололедные отложения с указанием их диаметра в мм.
Облачность - указаны через наклонную черту общая и нижняя облачность в баллах и высота нижней границы облаков в метрах; квадратными скобками обозначены формы облаков: Ci - перистые, Cs - перисто-слоистые, Cc - перисто-кучевые, Ac - высококучевые, As - высокослоистые, Sc - слоисто-кучевые, Ns - слоисто-дождевые, Cu - кучевые, Cb - кучево-дождевые. Подробнее классификацию облаков см. в Атласе облаков (PDF).
T - Температура воздуха - температура, измеренная на высоте 2 м над землей.
Td - Температура точки росы - температура, при понижении до которой содержащийся в воздухе водяной пар достигнет насыщения.
f - Относительная влажность воздуха - влажноcть воздуха, измеренная на высоте 2 м над землей.
Te - Эффективная температура - температура, которую ощущает одетый по сезону человек в тени. Характеристика душности погоды. При расчете учитывается влияние влажности воздуха и скорости ветра на теплоощущения человека.
Tes - Эффективная температура на солнце - температура, которую ощущает человек, с поправкой на солнечный нагрев. Характеристика знойности погоды. Зависит от высоты солнца над горизонтом, облачности и скорости ветра. Ночью, в пасмурную погоду, а также при ветре 12 м/с и более поправка равна нулю.
P - Атмосферное давление - приведенное к уровню моря атмосферное давление.
Po - Атмосферное давление - измеренное на уровне метеостанции атмосферное давление.
Tmin - Минимальная температура - минимум температуры воздуха на высоте 2 м над землей.
Tmax - Максимальная температура - максимум температуры воздуха на высоте 2 м над землей.
R - Количество осадков - Количество выпавших осадков за период времени, мм. При наведении курсора мыши на число - период времени, за который выпало указанное количество осадков.
R24 - Количество осадков - Количество выпавших осадков за 24 часа, мм.
S - Снежный покров - Высота снежного покрова, см. При наведении курсора мыши на число - состояние снежного покрова и степень покрытия местности в баллах.